Home   Weather   Irvine   Past weeks

Flag for USA Past Weather in Irvine, California, USA — Yesterday and Last 2 Weeks

Now
61 °F

Partly sunny.


Feels Like: 61 °F
Forecast: 51 / 60 °F
Wind: 13 mph from South

Location: John Wayne Airport-Orange County Airport

Current Time: Feb 19, 2017 at 1:19:15 pm

Latest Report: Feb 19, 2017 at 11:53 am


Visibility: 10 mi

Pressure: 29.97 "Hg

Humidity: 67%

Dew Point: 50 °F

Location of IrvineLocation

Past Weather in Irvine — Graph

°F

Irvine Temperature Yesterday

Maximum temperature yesterday: 58 °F (at 1:53 pm)
Minimum temperature yesterday: 53 °F (at 12:53 am)
Average temperature yesterday: 55 °F

High & Low Weather Summary for the Past Weeks

 TemperatureHumidityPressure
High75 °F (Feb 12, 2:53 pm)100% (Feb 6, 5:00 am)30.20 "Hg (Feb 6, 5:00 am)
Low51 °F (Feb 5, 5:53 am)30% (Feb 12, 2:53 pm)29.47 "Hg (Feb 17, 3:53 pm)
Average58 °F88%30.01 "Hg
* Reported Feb 4 11:53 am — Feb 19 11:53 am, Irvine, Weather by CustomWeather, © 2017

Note: Actual official high and low records may vary slightly from our data, if they occured in-between our weather recording intervals... More about our weather records

Advertising

Irvine Weather History for the Previous 24 Hours

Scroll right to see more
 ConditionsComfort  
Time TempWeatherWind HumidityBarometerVisibility
11:53 am
Sun, Feb 19
61 °FPartly sunny.13 mph67%29.97 "Hg10 mi
10:53 am59 °FMore clouds than sun.12 mph75%29.97 "Hg10 mi
10:04 am59 °FCloudy.8 mph75%29.96 "Hg10 mi
9:22 am57 °FLight rain. Mostly cloudy.No wind83%29.94 "Hg8 mi
9:01 am57 °FCloudy.3 mph83%29.93 "Hg10 mi
8:05 am56 °FLight rain. Fog.8 mph87%29.91 "Hg6 mi
7:53 am56 °FMore clouds than sun.3 mph84%29.89 "Hg10 mi
7:36 am56 °FMostly cloudy.No wind84%29.89 "Hg9 mi
6:53 am56 °FOvercast.3 mph84%29.86 "Hg10 mi
6:27 am56 °FOvercast.3 mph81%29.86 "Hg10 mi
5:53 am56 °FOvercast.3 mph81%29.84 "Hg10 mi
4:53 am56 °FOvercast.3 mph84%29.83 "Hg10 mi
3:53 am56 °FOvercast.5 mph84%29.81 "Hg9 mi
2:53 am55 °FOvercast.5 mph90%29.79 "Hg10 mi
1:53 am56 °FOvercast.6 mph87%29.76 "Hg10 mi
1:12 am56 °FOvercast.No wind87%29.76 "Hg10 mi
12:53 am56 °FMostly cloudy.No wind87%29.76 "Hg10 mi
11:53 pm
Sat, Feb 18
55 °FOvercast.5 mph90%29.76 "Hg10 mi
11:27 pm54 °FPassing clouds.3 mph90%29.75 "Hg10 mi
10:53 pm54 °FPartly cloudy.3 mph93%29.75 "Hg10 mi
9:53 pm56 °FPassing clouds.3 mph87%29.72 "Hg10 mi
9:34 pm56 °FPassing clouds.No wind87%29.72 "Hg10 mi
8:53 pm55 °FPartly cloudy.3 mph90%29.71 "Hg10 mi
7:53 pm56 °FPassing clouds.3 mph87%29.67 "Hg10 mi
6:53 pm57 °FPassing clouds.3 mph83%29.65 "Hg10 mi
5:53 pm58 °FPassing clouds.6 mph81%29.61 "Hg10 mi
5:26 pm57 °FBroken clouds.7 mph90%29.61 "Hg10 mi
4:53 pm57 °FPartly sunny.8 mph87%29.59 "Hg10 mi
3:53 pm58 °FBroken clouds.8 mph84%29.58 "Hg10 mi
3:24 pm58 °FBroken clouds.8 mph84%29.58 "Hg10 mi
2:53 pm58 °FPartly sunny.5 mph81%29.57 "Hg10 mi
1:53 pm58 °FMore clouds than sun.7 mph84%29.57 "Hg10 mi
1:26 pm57 °FMostly cloudy.3 mph87%29.56 "Hg10 mi
Weather by CustomWeather, © 2017

See weather overviewHow to use our weather pages